EW2295 Weather Reports


time (UTC)temp
C
wind
direction
speed
KPH
gust
KPH
rain 1hr
cm
rain 24hr
cm
rain mn
cm
humidity
%
barometer
mb
20260903064044 18 0 4.8 33.8 0.00 0.00 0.00 68 1018.2
20260903063545 18 0 1.6 33.8 0.00 0.00 0.00 68 1018.2
20260903063103 18 190 4.8 33.8 0.00 0.00 0.00 69 1018.1
20260903062545 18 0 3.2 19.3 0.00 0.00 0.00 69 1018.2
20260903062045 18 226 1.6 30.6 0.00 0.00 0.00 69 1018.1
20260903061605 18 186 4.8 30.6 0.00 0.00 0.00 69 1018.1
20260903061046 18 240 3.2 17.7 0.00 0.00 0.00 69 1018.2
20260903060544 18 229 6.4 17.7 0.00 0.00 0.00 70 1018.2
20260903060122 17 0 3.2 19.3 0.00 0.00 0.00 70 1018.1
20260903055543 17 0 3.2 19.3 0.00 0.00 0.00 70 1018.2
20260903055043 17 218 1.6 14.5 0.00 0.00 0.00 70 1018.1
20260903054557 17 0 1.6 12.9 0.00 0.00 0.00 70 1018.0
20260903054047 17 0 0.0 17.7 0.00 0.00 0.00 70 1017.8
20260903053544 17 0 3.2 17.7 0.00 0.00 0.00 70 1017.7
20260903053105 17 0 1.6 17.7 0.00 0.00 0.00 70 1017.7
20260903052543 17 175 1.6 12.9 0.00 0.00 0.00 69 1017.6
20260903052045 17 0 0.0 12.9 0.00 0.00 0.00 69 1017.8
20260903051608 17 0 0.0 12.9 0.00 0.00 0.00 70 1018.0
20260903051044 17 205 0.0 14.5 0.00 0.00 0.00 69 1018.2
20260903050543 17 0 1.6 16.1 0.00 0.00 0.00 70 1018.1
20260903050114 17 0 3.2 16.1 0.00 0.00 0.00 70 1018.3
20260903045545 17 159 1.6 16.1 0.00 0.00 0.00 70 1018.2
20260903045042 17 0 3.2 17.7 0.00 0.00 0.00 70 1018.3
20260903044606 17 0 3.2 17.7 0.00 0.00 0.00 71 1018.1
20260903044043 17 0 0.0 11.3 0.00 0.00 0.00 72 1018.1
20260903043543 17 237 0.0 11.3 0.00 0.00 0.00 73 1018.2
20260903043104 17 0 0.0 11.3 0.00 0.00 0.00 73 1018.3
20260903042546 17 0 0.0 11.3 0.00 0.00 0.00 73 1018.4
20260903042046 16 0 0.0 11.3 0.00 0.00 0.00 74 1018.3
20260903041559 16 0 0.0 9.7 0.00 0.00 0.00 74 1018.3
20260903041047 17 0 0.0 4.8 0.00 0.00 0.00 74 1018.2
20260903040549 17 0 0.0 4.8 0.00 0.00 0.00 74 1018.2
20260903040109 17 186 0.0 8.0 0.00 0.00 0.00 74 1018.4
20260903035542 17 0 0.0 9.7 0.00 0.00 0.00 74 1018.4
20260903035043 17 215 0.0 9.7 0.00 0.00 0.00 74 1018.7
20260903034602 17 0 0.0 8.0 0.00 0.00 0.00 74 1018.9
20260903034043 17 0 0.0 12.9 0.00 0.00 0.00 74 1018.9
20260903033549 17 0 0.0 12.9 0.00 0.00 0.00 74 1018.9
20260903033103 17 0 0.0 12.9 0.00 0.00 0.00 74 1018.9
20260903032543 17 0 0.0 9.7 0.00 0.00 0.00 73 1018.9
20260903032046 17 0 0.0 8.0 0.00 0.00 0.00 74 1018.9
20260903031606 17 0 0.0 11.3 0.00 0.00 0.00 74 1018.8
20260903031047 16 0 0.0 11.3 0.00 0.00 0.00 75 1019.0
20260903030546 16 195 0.0 8.0 0.00 0.00 0.00 75 1019.2
20260903030105 16 0 0.0 3.2 0.00 0.00 0.00 75 1019.0
20260903025545 16 0 0.0 0.0 0.00 0.00 0.00 75 1018.9
20260903025043 16 0 0.0 0.0 0.00 0.00 0.00 76 1018.9
20260903024604 16 0 0.0 0.0 0.00 0.00 0.00 75 1019.0
20260903024046 16 0 0.0 0.0 0.00 0.00 0.00 74 1019.0
20260903023546 16 0 0.0 4.8 0.00 0.00 0.00 74 1019.1
20260903023107 17 0 0.0 4.8 0.00 0.00 0.00 74 1019.3
20260903022543 17 0 0.0 12.9 0.00 0.00 0.00 75 1019.3
20260903022046 17 0 0.0 12.9 0.00 0.00 0.00 75 1019.3
20260903021559 17 0 0.0 12.9 0.00 0.00 0.00 75 1019.4
20260903021046 17 0 0.0 12.9 0.00 0.00 0.00 74 1019.6
20260903020542 17 0 0.0 6.4 0.00 0.00 0.00 74 1019.8
20260903020105 17 0 0.0 0.0 0.00 0.00 0.00 74 1019.6
20260903015543 17 0 0.0 0.0 0.00 0.00 0.00 74 1019.6
20260903015046 17 0 0.0 0.0 0.00 0.00 0.00 73 1019.6
20260903014633 17 0 0.0 0.0 0.00 0.00 0.00 73 1019.7
20260903014044 17 0 0.0 0.0 0.00 0.00 0.00 73 1019.7
20260903013544 17 0 0.0 16.1 0.00 0.00 0.00 73 1019.8
20260903013122 17 0 0.0 16.1 0.00 0.00 0.00 72 1019.8
20260903012543 17 238 0.0 14.5 0.00 0.00 0.00 73 1019.7
20260903012045 17 0 0.0 11.3 0.00 0.00 0.00 73 1019.8
20260903011608 17 0 0.0 11.3 0.00 0.00 0.00 74 1019.9
20260903011043 17 175 0.0 11.3 0.00 0.00 0.00 74 1019.9
20260903010546 16 0 0.0 3.2 0.00 0.00 0.00 75 1019.9
20260903010107 16 0 0.0 3.2 0.00 0.00 0.00 75 1019.8
20260903005547 16 0 0.0 0.0 0.00 0.00 0.00 75 1019.8
20260903005045 16 0 0.0 0.0 0.00 0.00 0.00 75 1019.9
20260903004605 17 0 0.0 8.0 0.00 0.00 0.00 74 1020.0
20260903004044 17 0 0.0 8.0 0.00 0.00 0.00 74 1020.0
20260903003544 17 0 0.0 8.0 0.00 0.00 0.00 74 1020.1
20260903003102 17 0 0.0 6.4 0.00 0.00 0.00 74 1020.2
20260903002547 17 0 0.0 9.7 0.00 0.00 0.00 74 1020.1
20260903002046 17 0 0.0 9.7 0.00 0.00 0.00 74 1020.3
20260903001601 17 0 0.0 3.2 0.00 0.00 0.00 74 1020.2
20260903001046 17 0 0.0 8.0 0.00 0.00 0.00 75 1020.4
20260903000548 16 0 0.0 8.0 0.00 0.00 0.00 76 1020.3
20260903000109 16 0 0.0 6.4 0.00 0.00 0.00 76 1020.3
20260902235547 16 0 0.0 6.4 0.00 0.00 0.00 77 1020.2
20260902235043 16 0 0.0 4.8 0.00 0.00 0.00 77 1020.4
20260902234605 16 0 0.0 4.8 0.00 0.00 0.00 77 1020.3
20260902234044 16 0 0.0 0.0 0.00 0.00 0.00 77 1020.4
20260902233543 16 0 0.0 0.0 0.00 0.00 0.00 78 1020.4
20260902233104 16 0 0.0 0.0 0.00 0.00 0.00 77 1020.5
20260902232542 16 0 0.0 0.0 0.00 0.00 0.00 77 1020.6
20260902232046 16 0 0.0 0.0 0.00 0.00 0.00 78 1020.6
20260902231602 16 0 0.0 0.0 0.00 0.00 0.00 77 1020.7
20260902231044 16 0 0.0 0.0 0.00 0.00 0.00 76 1020.7
20260902230548 16 0 0.0 0.0 0.00 0.00 0.00 76 1020.8
20260902230104 16 0 0.0 0.0 0.00 0.00 0.00 76 1020.8
20260902225546 16 0 0.0 0.0 0.00 0.00 0.00 76 1020.9
20260902225044 16 0 0.0 0.0 0.00 0.00 0.00 76 1020.8
20260902224611 16 0 0.0 0.0 0.00 0.00 0.00 78 1020.9
20260902224044 16 0 0.0 0.0 0.00 0.00 0.00 78 1020.9
20260902223542 16 0 0.0 0.0 0.00 0.00 0.00 80 1020.9
20260902223110 16 0 0.0 0.0 0.00 0.00 0.00 80 1020.9
20260902222542 16 0 0.0 0.0 0.00 0.00 0.00 81 1020.9
20260902222043 16 0 0.0 0.0 0.00 0.00 0.00 82 1020.9
20260902221600 16 0 0.0 0.0 0.00 0.00 0.00 83 1021.1
20260902221042 15 0 0.0 0.0 0.00 0.00 0.00 83 1021.1
20260902220546 15 0 0.0 0.0 0.00 0.00 0.00 83 1021.2
20260902220109 15 0 0.0 0.0 0.00 0.00 0.00 83 1021.0
20260902215542 15 0 0.0 0.0 0.00 0.00 0.00 83 1021.0
20260902215042 16 0 0.0 0.0 0.00 0.00 0.00 82 1021.0
20260902214615 16 0 0.0 0.0 0.00 0.00 0.00 82 1021.1
20260902214046 16 0 0.0 0.0 0.00 0.00 0.00 82 1021.1
20260902213546 16 0 0.0 0.0 0.00 0.00 0.00 82 1021.1
20260902213104 16 0 0.0 0.0 0.00 0.00 0.00 81 1021.1
20260902212546 16 0 0.0 0.0 0.00 0.00 0.00 81 1021.0
20260902212045 16 0 0.0 0.0 0.00 0.00 0.00 80 1021.0
20260902211601 16 0 0.0 0.0 0.00 0.00 0.00 80 1021.1
20260902211042 16 0 0.0 0.0 0.00 0.00 0.00 80 1021.1
20260902210547 16 0 0.0 0.0 0.00 0.00 0.00 79 1021.3
20260902205542 16 0 0.0 0.0 0.00 0.00 0.00 79 1021.2
20260902205043 16 0 0.0 0.0 0.00 0.00 0.00 78 1021.2
20260902204606 16 0 0.0 0.0 0.00 0.00 0.00 78 1021.3
20260902204043 16 0 0.0 0.0 0.00 0.00 0.00 77 1021.3
20260902203542 17 0 0.0 0.0 0.00 0.00 0.00 77 1021.3
20260902203104 17 0 0.0 0.0 0.00 0.00 0.00 77 1021.3
20260902202545 17 0 0.0 0.0 0.00 0.00 0.00 77 1021.3
20260902202045 17 0 0.0 0.0 0.00 0.00 0.00 77 1021.3
20260902201559 17 0 0.0 0.0 0.00 0.00 0.00 76 1021.3
20260902201046 17 0 0.0 0.0 0.00 0.00 0.00 76 1021.2
20260902200545 17 0 0.0 0.0 0.00 0.00 0.00 76 1021.2
20260902200109 17 0 0.0 0.0 0.00 0.00 0.00 76 1021.3
20260902195547 17 0 0.0 0.0 0.00 0.00 0.00 77 1021.4
20260902195042 17 0 0.0 0.0 0.00 0.00 0.00 77 1021.5
20260902194607 17 0 0.0 0.0 0.00 0.00 0.00 76 1021.5
20260902194046 17 0 0.0 0.0 0.00 0.00 0.00 76 1021.3
20260902193542 17 0 0.0 0.0 0.00 0.00 0.00 76 1021.5
20260902193104 17 0 0.0 0.0 0.00 0.00 0.00 76 1021.4
20260902192544 17 0 0.0 0.0 0.00 0.00 0.00 76 1021.4
20260902192043 17 0 0.0 0.0 0.00 0.00 0.00 76 1021.4
20260902191558 17 0 0.0 0.0 0.00 0.00 0.00 76 1021.3
20260902191045 17 0 0.0 0.0 0.00 0.00 0.00 78 1021.2
20260902190545 17 0 0.0 0.0 0.00 0.00 0.00 78 1021.3
20260902190108 17 0 0.0 0.0 0.00 0.00 0.00 79 1021.3
20260902185544 17 0 0.0 0.0 0.00 0.00 0.00 79 1021.4
20260902185043 17 0 0.0 0.0 0.00 0.00 0.00 78 1021.3
20260902184607 17 0 0.0 0.0 0.00 0.00 0.00 78 1021.3
20260902184043 17 0 0.0 0.0 0.00 0.00 0.00 78 1021.3
20260902183543 17 0 0.0 0.0 0.00 0.00 0.00 77 1021.3
20260902183109 17 0 0.0 0.0 0.00 0.00 0.00 77 1021.1
20260902182550 18 0 0.0 0.0 0.00 0.00 0.00 77 1021.1
20260902182043 18 0 0.0 0.0 0.00 0.00 0.00 76 1021.0
20260902181558 18 0 0.0 0.0 0.00 0.00 0.00 76 1021.0
20260902181043 18 0 0.0 0.0 0.00 0.00 0.00 75 1021.0
20260902180542 18 0 0.0 0.0 0.00 0.00 0.00 75 1020.9
20260902180106 18 0 0.0 0.0 0.00 0.00 0.00 74 1020.9
20260902175543 18 0 0.0 0.0 0.00 0.00 0.00 74 1020.9
20260902175045 18 0 0.0 0.0 0.00 0.00 0.00 73 1020.9
20260902174604 18 0 0.0 0.0 0.00 0.00 0.00 73 1020.9
20260902174044 18 0 0.0 0.0 0.00 0.00 0.00 73 1020.8
20260902173545 18 0 0.0 0.0 0.00 0.00 0.00 72 1020.9
20260902173136 18 0 0.0 0.0 0.00 0.00 0.00 72 1020.9
20260902172542 18 0 0.0 0.0 0.00 0.00 0.00 71 1020.8
20260902172043 18 0 0.0 0.0 0.00 0.00 0.00 70 1020.9
20260902171626 18 0 0.0 0.0 0.00 0.00 0.00 69 1020.9
20260902171042 19 0 0.0 0.0 0.00 0.00 0.00 69 1020.9
20260902170542 19 0 0.0 0.0 0.00 0.00 0.00 68 1020.9
20260902170111 19 0 0.0 0.0 0.00 0.00 0.00 68 1020.9
20260902165543 19 0 0.0 0.0 0.00 0.00 0.00 66 1021.0
20260902165044 19 0 0.0 0.0 0.00 0.00 0.00 66 1020.9
20260902164601 19 0 0.0 0.0 0.00 0.00 0.00 66 1020.9
20260902164043 19 0 0.0 3.2 0.00 0.00 0.00 66 1021.0
20260902163542 19 0 0.0 3.2 0.00 0.00 0.00 67 1021.0
20260902163107 19 0 0.0 8.0 0.00 0.00 0.00 66 1021.0
20260902162546 19 0 0.0 12.9 0.00 0.00 0.00 67 1021.1
20260902162045 19 0 0.0 12.9 0.00 0.00 0.00 66 1021.1
20260902161606 19 0 0.0 6.4 0.00 0.00 0.00 66 1021.1
20260902161043 19 0 0.0 6.4 0.00 0.00 0.00 67 1021.1
20260902160542 19 0 0.0 0.0 0.00 0.00 0.00 68 1021.2
20260902160105 19 0 0.0 0.0 0.00 0.00 0.00 66 1021.2
20260902155546 20 0 0.0 0.0 0.00 0.00 0.00 67 1021.1
20260902155045 20 0 0.0 12.9 0.00 0.00 0.00 65 1021.2
20260902154604 20 0 0.0 12.9 0.00 0.00 0.00 64 1021.1
20260902154046 20 0 1.6 12.9 0.00 0.00 0.00 65 1021.1
20260902153546 20 0 3.2 12.9 0.00 0.00 0.00 64 1021.3
20260902153104 20 0 0.0 14.5 0.00 0.00 0.00 64 1021.2
20260902152546 20 234 0.0 14.5 0.00 0.00 0.00 64 1021.2
20260902152046 20 0 3.2 14.5 0.00 0.00 0.00 64 1021.2
20260902151602 20 0 1.6 12.9 0.00 0.00 0.00 63 1021.2
20260902151047 20 236 0.0 16.1 0.00 0.00 0.00 64 1021.3
20260902150546 20 0 4.8 16.1 0.00 0.00 0.00 64 1021.2
20260902150106 20 209 0.0 14.5 0.00 0.00 0.00 63 1021.3
20260902145546 20 249 1.6 14.5 0.00 0.00 0.00 62 1021.4
20260902145045 20 0 1.6 9.7 0.00 0.00 0.00 63 1021.4
20260902144556 20 0 0.0 1.6 0.00 0.00 0.00 63 1021.3
20260902144047 20 0 0.0 9.7 0.00 0.00 0.00 63 1021.3
20260902143550 20 0 1.6 9.7 0.00 0.00 0.00 63 1021.3
20260902143109 20 0 0.0 9.7 0.00 0.00 0.00 62 1021.3
20260902142547 20 0 0.0 8.0 0.00 0.00 0.00 65 1021.2
20260902142047 20 0 1.6 9.7 0.00 0.00 0.00 63 1021.3
20260902141610 20 0 0.0 9.7 0.00 0.00 0.00 62 1021.4
20260902141046 20 0 0.0 12.9 0.00 0.00 0.00 62 1021.2
20260902140547 20 0 0.0 12.9 0.00 0.00 0.00 61 1021.2
20260902135546 20 0 0.0 3.2 0.00 0.00 0.00 60 1021.3
20260902135046 20 0 0.0 11.3 0.00 0.00 0.00 60 1021.1
20260902134558 20 0 0.0 11.3 0.00 0.00 0.00 60 1021.1
20260902134045 20 0 0.0 6.4 0.00 0.00 0.00 60 1021.2
20260902133547 20 0 0.0 11.3 0.00 0.00 0.00 59 1021.1
20260902133106 20 0 0.0 12.9 0.00 0.00 0.00 60 1021.2
20260902132544 20 257 0.0 12.9 0.00 0.00 0.00 58 1021.2
20260902132047 20 0 0.0 16.1 0.00 0.00 0.00 58 1021.2
20260902131628 20 249 4.8 16.1 0.00 0.00 0.00 56 1021.2
20260902131046 21 0 0.0 11.3 0.00 0.00 0.00 59 1021.1
20260902130546 20 0 0.0 11.3 0.00 0.00 0.00 58 1021.2
20260902130059 20 0 0.0 11.3 0.00 0.00 0.00 58 1021.3
20260902125546 21 0 0.0 12.9 0.00 0.00 0.00 60 1021.3
20260902125047 21 0 0.0 12.9 0.00 0.00 0.00 59 1021.3
20260902124609 20 0 0.0 11.3 0.00 0.00 0.00 59 1021.4
20260902124046 21 0 3.2 16.1 0.00 0.00 0.00 60 1021.4
20260902123550 21 0 1.6 16.1 0.00 0.00 0.00 60 1021.5
20260902123152 20 0 6.4 16.1 0.00 0.00 0.00 61 1021.4
20260902122549 20 233 0.0 14.5 0.00 0.00 0.00 62 1021.4
20260902122046 20 0 3.2 14.5 0.00 0.00 0.00 63 1021.5
20260902121602 19 0 0.0 14.5 0.00 0.00 0.00 64 1021.6
20260902121046 19 259 1.6 14.5 0.00 0.00 0.00 65 1021.4
20260902120545 20 223 0.0 9.7 0.00 0.00 0.00 66 1021.4
20260902115548 19 0 1.6 11.3 0.00 0.00 0.00 64 1021.3
20260902115045 20 0 0.0 17.7 0.00 0.00 0.00 63 1021.4
20260902114557 20 0 3.2 17.7 0.00 0.00 0.00 62 1021.4
20260902114044 20 227 3.2 12.9 0.00 0.00 0.00 63 1021.4
20260902113542 20 0 0.0 12.9 0.00 0.00 0.00 63 1021.4
20260902113102 20 242 1.6 12.9 0.00 0.00 0.00 62 1021.4
20260902112544 20 0 3.2 12.9 0.00 0.00 0.00 60 1021.5
20260902112043 19 195 0.0 20.9 0.00 0.00 0.00 64 1021.5
20260902111602 19 0 0.0 20.9 0.00 0.00 0.00 63 1021.4
20260902111042 20 0 4.8 20.9 0.00 0.00 0.00 62 1021.4
20260902110542 20 238 3.2 16.1 0.00 0.00 0.00 62 1021.4
20260902110111 20 0 1.6 17.7 0.00 0.00 0.00 63 1021.4
20260902105545 20 229 6.4 20.9 0.00 0.00 0.00 63 1021.5
20260902105042 20 0 1.6 20.9 0.00 0.00 0.00 63 1021.4
20260902104608 20 219 1.6 14.5 0.00 0.00 0.00 66 1021.5
20260902104045 20 0 1.6 12.9 0.00 0.00 0.00 63 1021.5
20260902103541 20 224 0.0 11.3 0.00 0.00 0.00 64 1021.4
20260902103103 19 0 0.0 11.3 0.00 0.00 0.00 66 1021.5
20260902102542 18 0 0.0 16.1 0.00 0.00 0.00 65 1021.5
20260902102042 18 0 0.0 19.3 0.00 0.00 0.00 64 1021.5
20260902101558 18 225 4.8 19.3 0.00 0.00 0.00 66 1021.5
20260902101046 18 0 1.6 11.3 0.00 0.00 0.00 68 1021.5
20260902100546 19 0 0.0 12.9 0.00 0.00 0.00 64 1021.5
20260902095546 19 0 1.6 11.3 0.00 0.00 0.00 68 1021.4
20260902095044 19 0 0.0 8.0 0.00 0.00 0.00 72 1021.3
20260902094605 19 0 0.0 8.0 0.00 0.00 0.00 71 1021.4
20260902094045 18 0 0.0 8.0 0.00 0.00 0.00 72 1021.4
20260902093542 19 0 0.0 8.0 0.00 0.00 0.00 69 1021.5
20260902093100 19 0 0.0 3.2 0.00 0.00 0.00 74 1021.5
20260902092545 18 0 0.0 4.8 0.00 0.00 0.00 74 1021.6
20260902092042 18 0 0.0 8.0 0.00 0.00 0.00 74 1021.5
20260902091610 18 0 0.0 11.3 0.00 0.00 0.00 74 1021.5
20260902091045 18 218 0.0 11.3 0.00 0.00 0.00 73 1021.4
20260902090549 18 0 0.0 0.0 0.00 0.00 0.00 74 1021.5
20260902090109 18 0 0.0 0.0 0.00 0.00 0.00 74 1021.5
20260902085546 18 0 0.0 0.0 0.00 0.00 0.00 74 1021.5
20260902085046 18 0 0.0 0.0 0.00 0.00 0.00 74 1021.5
20260902084555 18 0 0.0 6.4 0.00 0.00 0.00 73 1021.5
20260902084046 18 0 0.0 6.4 0.00 0.00 0.00 73 1021.5
20260902083546 18 0 0.0 0.0 0.00 0.00 0.00 73 1021.5
20260902083058 18 0 0.0 6.4 0.00 0.00 0.00 75 1021.4
20260902082546 18 0 0.0 11.3 0.00 0.00 0.00 75 1021.5
20260902082046 18 0 0.0 11.3 0.00 0.00 0.00 74 1021.6
20260902081601 18 0 0.0 11.3 0.00 0.00 0.00 75 1021.5
20260902081046 18 0 0.0 11.3 0.00 0.00 0.00 76 1021.4
20260902080547 18 0 0.0 9.7 0.00 0.00 0.00 77 1021.4
20260902080100 17 0 1.6 9.7 0.00 0.00 0.00 79 1021.3
20260902075546 17 0 0.0 0.0 0.00 0.00 0.00 80 1021.2
20260902075047 17 0 0.0 0.0 0.00 0.00 0.00 80 1021.3
20260902074601 17 0 0.0 0.0 0.00 0.00 0.00 83 1021.1
20260902074048 17 0 0.0 0.0 0.00 0.00 0.00 83 1021.1
20260902073546 17 0 0.0 0.0 0.00 0.00 0.00 84 1021.3
20260902073103 17 0 0.0 0.0 0.00 0.00 0.00 83 1021.3
20260902072545 16 0 0.0 0.0 0.00 0.00 0.00 86 1021.2
20260902072048 16 0 0.0 0.0 0.00 0.00 0.00 88 1021.1
20260902071603 16 0 0.0 0.0 0.00 0.00 0.00 87 1021.0
20260902071046 16 0 0.0 0.0 0.00 0.00 0.00 88 1021.0
20260902070545 16 0 0.0 0.0 0.00 0.00 0.00 89 1021.0
20260902065548 15 0 0.0 0.0 0.00 0.00 0.00 91 1020.9
20260902065046 15 0 0.0 0.0 0.00 0.00 0.00 92 1020.8
20260902064606 15 0 0.0 0.0 0.00 0.00 0.00 93 1020.8